Voltar ao catálogo

STARLINK-34875

AtivoComunicaçõesVLEO
NORAD 65689·PAYLOAD·🇺🇸 United States

Lançado Sep 21, 2025 de Cape Canaveral Space Force Station

Loading…

Próximas Passagens (próximas 24 horas)

TLE

AtualizadoSource: CelesTrak SupGP

Época: Sep 14, 2026, 22:36 UTC

1 65689C 25212P   26257.94215278 -.00036066  00000+0 -10653-2 0  2572
2 65689  53.1584 183.8021 0001404  88.4455  93.2041 15.34415841    14

Acompanhe STARLINK-34875 em tempo real com AllMySat

Download on the App Store